Regional Weather Roundup
Issued by NWS

Home | Current Version | Previous Version | Text Only | Print | Product List | Glossary Off
Versions: 1 2 3 4 5 6 7 8 9 10 11 12 13 14 15 16 17 18 19 20 21 22 23 24 25 26 27 28 29 30 31 32 33 34 35 36 37 38 39 40 41 42 43 44 45 46 47 48 49 50

000
ASUS43 KLSX 292307
RWRMO

WEATHER SUMMARY FOR MISSOURI
NATIONAL WEATHER SERVICE SPRINGFIELD MO
600 PM CDT SAT AUG 29 2015

NOTE: "FAIR" INDICATES FEW OR NO CLOUDS BELOW 12,000 FEET WITH NO
       SIGNIFICANT WEATHER AND/OR OBSTRUCTIONS TO VISIBILITY.
       CURRENT SKY AND/OR WEATHER CONDITIONS ARE NOT AVAILABLE FOR
       CHILLICOTHE AND FARMINGTON.

MOZ001>031-035>038-043-044-053-054-300000-
...NORTHERN AND WESTERN MISSOURI...

CITY           SKY/WX    TMP DP  RH WIND       PRES   REMARKS
KANSAS CTY INT PTSUNNY   75  68  78 N8        30.01S
KANSAS C DTWN  CLOUDY    78  68  71 N5        29.99R
LEE`S SUMMIT   CLOUDY    77  68  73 W3        30.00S
ST JOSEPH      CLOUDY    71  65  81 N9        30.03R
CHILLICOTHE      N/A     79  70  74 N3        30.00R
KIRKSVILLE     CLOUDY    76  70  82 CALM      30.01S

$$
MOZ066>068-077>081-088>096-101>105-300000-
...SOUTHWEST MISSOURI...

CITY           SKY/WX    TMP DP  RH WIND       PRES   REMARKS
SPRINGFIELD    PTSUNNY   81  68  64 E6        29.98S
JOPLIN         MOSUNNY   82  70  66 W6        29.97F

$$
MOZ032>034-039>042-045>050-055>058-069>072-300000-
...CENTRAL MISSOURI...

CITY           SKY/WX    TMP DP  RH WIND       PRES   REMARKS
COLUMBIA       CLOUDY    79  70  74 NW6       29.99R
JEFFERSON CITY CLOUDY    82  67  60 NW6       29.96S
ROLLA          SUNNY     81  67  62 SW8       29.99S
SEDALIA        CLOUDY    80  68  66 SW5       30.00R
WHITEMAN AFB   PTSUNNY   79  69  71 NW3       29.97S
WARRENSBURG    CLOUDY    79  68  69 CALM      29.98S
OSAGE BEACH    CLOUDY    79  68  69 CALM      29.99S

$$
MOZ051-052-059>065-300000-
...EAST CENTRAL MISSOURI...

CITY           SKY/WX    TMP DP  RH WIND       PRES   REMARKS
ST LOUIS INTL  PTSUNNY   83  67  58 S8        29.99S
SPIRIT OF STL  PTSUNNY   82  70  66 S7        29.97S
ST CHARLES     PTSUNNY   82  69  64 S7        29.97S

$$
MOZ072>076-082>087-097>100-106>115-300000-
...SOUTH CENTRAL AND SOUTHEAST MISSOURI...

CITY           SKY/WX    TMP DP  RH WIND       PRES   REMARKS
CAPE GIRARDEAU CLOUDY    80  70  71 SW5       30.00S
FARMINGTON     CLOUDY    77  68  73 S6        30.04S
POPLAR BLUFF   PTSUNNY   81  67  62 CALM      29.99F
WEST PLAINS    MOSUNNY   76  65  68 SE7       30.03S

$$



USA.gov is the U.S. government's official web portal to all federal, state and local government web resources and services.